EW7642 Weather Reports


time (UTC)temp
C
wind
direction
speed
KPH
gust
KPH
rain 1hr
cm
rain 24hr
cm
rain mn
cm
humidity
%
barometer
mb
20260503230051 23 237 6.4 12.9 0.00 0.00 0.00 51 1010.9
20260503224551 24 251 6.4 16.1 0.00 0.00 0.00 44 1011.1
20260503223045 23 341 12.9 20.9 0.00 0.00 0.00 43 1011.3
20260503221541 23 355 14.5 20.9 0.00 0.00 0.00 44 1011.4
20260503220040 23 9 16.1 20.9 0.00 0.00 0.00 44 1011.5
20260503214542 23 355 14.5 22.5 0.00 0.00 0.00 44 1011.7
20260503213050 22 340 19.3 27.4 0.00 0.00 0.00 45 1011.9
20260503211532 22 320 16.1 27.4 0.00 0.00 0.00 46 1012.0
20260503210024 22 348 19.3 25.7 0.00 0.00 0.00 47 1012.3
20260503204528 22 345 22.5 29.0 0.00 0.00 0.00 47 1012.5
20260503203023 21 349 19.3 27.4 0.00 0.00 0.00 47 1012.7
20260503201520 21 338 19.3 25.7 0.00 0.00 0.00 48 1012.9
20260503200016 21 344 12.9 20.9 0.00 0.00 0.00 52 1013.1
20260503194518 20 153 1.6 9.7 0.00 0.00 0.00 58 1013.2
20260503193009 21 207 6.4 16.1 0.00 0.00 0.00 55 1013.3
20260503191507 21 336 8.0 19.3 0.00 0.00 0.00 49 1013.4
20260503190005 21 12 12.9 24.1 0.00 0.00 0.00 49 1013.6
20260503184502 21 360 12.9 20.9 0.00 0.00 0.00 51 1013.9
20260503183000 21 335 12.9 17.7 0.00 0.00 0.00 49 1014.0
20260503181559 20 329 12.9 19.3 0.00 0.00 0.00 50 1014.1
20260503180056 20 326 9.7 19.3 0.00 0.00 0.00 52 1014.2
20260503174610 20 323 14.5 20.9 0.00 0.00 0.00 52 1014.4
20260503173118 20 331 9.7 20.9 0.00 0.00 0.00 52 1014.3
20260503171551 19 326 14.5 20.9 0.00 0.00 0.00 53 1014.5
20260503100108 12 290 0.0 0.0 0.00 0.00 0.00 88 1014.5
20260503081555 13 293 3.2 6.4 0.00 0.00 0.00 84 1014.3
20260503071550 -17 0.0 0.0 0.00 0.00 0.00 1014.2
20260503054502 -17 0.0 0.0 0.00 0.00 0.00 1014.2
20260503053058 -17 0.0 0.0 0.00 0.00 0.00 1014.2
20260503051554 -17 0.0 0.0 0.00 0.00 0.00 1014.3
20260503050056 -17 0.0 0.0 0.00 0.00 0.00 1014.2
20260503044545 -17 0.0 0.0 0.00 0.00 0.00 1014.1
20260503043045 -17 0.0 0.0 0.00 0.00 0.00 1014.0
20260503041537 -17 0.0 0.0 0.00 0.00 0.00 1013.9
20260503040035 18 292 0.0 3.2 0.00 0.00 0.00 65 1013.8
20260503034533 18 162 0.0 1.6 0.00 0.00 0.00 60 1013.6
20260503033039 18 162 0.0 3.2 0.00 0.00 0.00 60 1013.4
20260503031536 18 162 0.0 3.2 0.00 0.00 0.00 58 1013.3
20260503030036 19 214 0.0 4.8 0.00 0.00 0.00 56 1013.3
20260503024542 20 227 0.0 8.0 0.00 0.00 0.00 55 1013.3
20260503023030 20 144 3.2 6.4 0.00 0.00 0.00 54 1013.4
20260503021533 20 178 1.6 4.8 0.00 0.00 0.00 56 1013.3
20260503020029 20 150 4.8 9.7 0.00 0.00 0.00 55 1013.3
20260503014527 20 160 4.8 11.3 0.00 0.00 0.00 54 1013.4
20260503013033 21 153 4.8 11.3 0.00 0.00 0.00 53 1013.6
20260503011524 21 178 1.6 8.0 0.00 0.00 0.00 56 1013.6
20260503010022 21 150 4.8 9.7 0.00 0.00 0.00 53 1013.7
20260503004519 21 209 3.2 8.0 0.00 0.00 0.00 53 1013.9
20260503003021 21 190 3.2 8.0 0.00 0.00 0.00 55 1013.9
20260503001512 20 184 3.2 9.7 0.00 0.00 0.00 58 1014.0
20260503000008 20 223 1.6 8.0 0.00 0.00 0.00 60 1014.2
20260502234505 19 213 1.6 6.4 0.00 0.03 0.00 62 1014.4
20260502233001 18 132 4.8 11.3 0.00 0.03 0.00 64 1014.6
20260502231558 18 140 6.4 11.3 0.00 0.03 0.00 66 1014.8